Погода в Междуречье

Россия / Калининградская область     54°37′28″N   21°31′10″E
темп.,
°C
ветер,
м/с
пор.,
м/с
влажн.,
%
обл.,
%
осадки,
мм/ч
давл.,
гПа
погр.,
м
27 февраля, сб
сб2723:00+3з5139043 0.0 1020501
02:00+3зсз4129022 0.0 1021380
05:00+2зсз4109321 0.0 1021318
08:00+2сз4129224 0.0 1024481
11:00+5ссз611740 0.0 1025773
14:00+6сз711700 0.0 1027782
17:00+4сз612760 0.0 1028710
20:00+1сз411910 0.0 1030392
28 февраля, вс
вс2823:000зсз38960 0.0 1030230
02:00+1з379333 0.0 1031216
05:00+1з399290 0.0 1029237
08:00+1з399280 0.0 1029253
11:00+4зсз598999 0.0 1028528
14:00+5зсз5986100 0.0 1028661
17:00+5сз5107978 0.0 1028646
20:00+3зсз498957 0.0 1029286
1 марта, пн
пн123:00+2сз499120 0.0 1030256
02:00+1сз249410 0.0 103291
05:00+1сз25930 0.0 1031100
08:00+1з35930 0.0 103298
11:00+6з36760 0.0 1032325
14:00+9з48670 0.0 1032488
17:00+7з410690 0.0 1030499
20:00+4з312862 0.0 1030390
2 марта, вт
вт223:00+3з4138938 0.0 1030465
02:00+2з4129321 0.0 1030406
05:00+1з3109633 0.0 1029308
08:00+2з489660 0.0 1029359
11:00+4зсз4690100 0.0 1029402
14:00+6з4684100 0.0 1029518
17:00+5з468571 0.0 1029452
20:00+3з359576 0.0 1030157
3 марта, ср
ср323:00+1з129671 0.0 103022
02:00+1з229535 0.0 103021
05:000юз129438 0.0 103021
08:000зюз129418 0.0 103023
11:00+5зюз22750 0.0 1030333
14:00+7юз23710 0.0 1028546
17:00+4зюз348846 0.0 1027448
20:00+3з258973 0.0 1025403